Home > Time Zones > World Clock > Weather > Japan > Osaka > Past weeks

Flag Weather past 2 weeks in Osaka, Japan

Now
64 °F

Partly cloudy.


Feels Like: 64 °F
Forecast: 62 / 72 °F
Wind: 1 mph from North

Location: Kansai International Airport

Current Time: Oct 31, 2014 at 1:04:13 AM

Latest Report: Oct 31, 2014 at 12:30 AM


Visibility: N/A

Pressure: 30.21 "Hg

Humidity: 73%

Dew point: 55 °F

Location of OsakaLocation

Historic Weather in Osaka — Graph

°F

Osaka temperature yesterday

Maximum temperature yesterday: 70 °F (at 2:30 PM)
Minimum temperature yesterday: 55 °F (at 6:30 AM)
Average temperature yesterday: 63 °F

Past Weeks' High & Low Weather Summary

 TemperatureHumidityPressure
High75 °F (Oct 21, 12:30 PM)94% (Oct 20, 4:30 PM)30.36 "Hg (Oct 20, 4:30 PM)
Low54 °F (Oct 29, 3:30 AM)27% (Oct 19, 4:00 PM)29.80 "Hg (Oct 22, 2:30 AM)
Average65 °F63%30.12 "Hg
* Reported Midnight between Oct 15 and Oct 16 — Midnight between Oct 30 and Oct 31, Osaka, Weather by CustomWeather, © 2014

Note: Actual official high and low records may vary slightly from our data, if they occured in-between our weather recording intervals... More about our weather records

Advertising

Osaka weather history for previous 24 hours

 ConditionsComfort  
Time TempWeatherWind HumidityBarometerVisibility
12:00 AM
Oct 31
64 °FPartly cloudy.1 mph68%30.24 "HgN/A
11:30 PM
Oct 30
64 °FPartly cloudy.1 mph68%30.24 "HgN/A
11:00 PM64 °FPartly cloudy.3 mph73%30.24 "HgN/A
10:30 PM64 °FPartly cloudy.5 mph73%30.24 "HgN/A
10:00 PM64 °FPassing clouds.5 mph68%30.24 "HgN/A
9:30 PM64 °FPassing clouds.3 mph68%30.24 "HgN/A
9:00 PM64 °FPassing clouds.5 mph68%30.24 "HgN/A
8:30 PM64 °FPassing clouds.3 mph68%30.24 "HgN/A
8:00 PM66 °FPassing clouds.3 mph68%30.24 "HgN/A
7:30 PM66 °FPassing clouds.3 mph68%30.24 "HgN/A
7:00 PM66 °FPassing clouds.3 mph68%30.24 "HgN/A
6:30 PM68 °FPassing clouds.2 mph60%30.21 "HgN/A
6:00 PM66 °FPassing clouds.1 mph52%30.21 "HgN/A
5:30 PM68 °FPassing clouds.2 mph53%30.21 "HgN/A
5:00 PM68 °FPartly sunny.2 mph49%30.21 "HgN/A
4:30 PM68 °FPartly sunny.3 mph46%30.21 "HgN/A
4:00 PM68 °FPartly sunny.2 mph46%30.21 "HgN/A
3:30 PM70 °FScattered clouds.3 mph38%30.21 "HgN/A
3:00 PM70 °FPassing clouds.2 mph38%30.21 "HgN/A
2:30 PM70 °FPassing clouds.3 mph40%30.21 "HgN/A
2:00 PM68 °FPassing clouds.5 mph43%30.24 "HgN/A
1:30 PM68 °FPassing clouds.5 mph49%30.24 "HgN/A
1:00 PM66 °FPassing clouds.5 mph49%30.24 "HgN/A
12:30 PM66 °FPassing clouds.2 mph49%30.24 "HgN/A
12:00 PM64 °FPassing clouds.3 mph46%30.27 "HgN/A
11:30 AM64 °FPassing clouds.3 mph43%30.27 "HgN/A
11:00 AM63 °FSunny.2 mph52%30.27 "Hg10 mi
10:30 AM63 °FSunny.6 mph56%30.30 "Hg10 mi
10:00 AM61 °FSunny.6 mph59%30.30 "Hg10 mi
9:30 AM59 °FSunny.6 mph63%30.30 "Hg10 mi
9:00 AM59 °FPassing clouds.7 mph63%30.30 "HgN/A
8:30 AM59 °FSunny.7 mph63%30.30 "Hg10 mi
8:00 AM57 °FSunny.7 mph67%30.30 "Hg10 mi
7:30 AM57 °FSunny.8 mph67%30.30 "Hg10 mi
7:00 AM57 °FSunny.8 mph67%30.30 "Hg10 mi
6:30 AM55 °FSunny.7 mph77%30.27 "Hg10 mi
6:00 AM57 °FClear.7 mph67%30.27 "Hg10 mi
5:30 AM57 °FClear.8 mph67%30.27 "Hg10 mi
5:00 AM57 °FClear.9 mph67%30.27 "Hg10 mi
4:30 AM57 °FClear.9 mph67%30.27 "Hg10 mi
4:00 AM57 °FClear.13 mph63%30.27 "Hg10 mi
3:30 AM57 °FClear.12 mph67%30.27 "Hg10 mi
3:00 AM59 °FClear.10 mph63%30.27 "Hg10 mi
2:30 AM59 °FClear.10 mph63%30.27 "Hg10 mi
2:00 AM57 °FClear.9 mph63%30.27 "Hg10 mi
1:30 AM59 °FClear.9 mph59%30.27 "Hg10 mi
1:00 AM59 °FClear.9 mph63%30.30 "Hg10 mi
Weather by CustomWeather, © 2014

See weather overviewHow to use our weather pages